Weather History for Marrakech, Morocco

Change the Weather History Date:

Sunday, October 31, 2010

  Actual Average Record
Temperature  
Mean Temperature 67 °F -  
Max Temperature 74 °F 70 °F 89 °F (1998)
Min Temperature 60 °F 49 °F 46 °F (2008)
Cooling Degree Days 2    
Growing Degree Days 17 (Base 50)    
Moisture  
Dew Point 56 °F    
Average Humidity 74    
Maximum Humidity 94    
Minimum Humidity 40    
Precipitation  
Precipitation 0.00 in 0.05 in - ()
Sea Level Pressure  
Sea Level Pressure 30.11 in    
Wind  
Wind Speed 6 mph ()    
Max Wind Speed 15 mph    
Max Gust Speed -    
Visibility 5.7 miles    
Events Rain    
Averages and records for this station are not official NWS values.
T = Trace of Precipitation, MM = Missing Value Source: Averaged Metar Reports

Daily Weather History Graph

Daily Weather History Graph

Search for Another Location

Airport:

Trip Planner

Search our weather history database for the weather conditions in past years. The results will help you decide how hot, cold, wet, or windy it might be!

Date:

Astronomy

Oct. 31, 2010 Rise Set
Actual Time 6:47 AM WET 5:43 PM WET
Civil Twilight 6:22 AM WET 6:08 PM WET
Nautical Twilight 5:53 AM WET 6:37 PM WET
Astronomical Twilight 5:24 AM WET 7:06 PM WET
Moon 12:22 AM WET (10/31) 1:50 PM WET (10/31)
Length of Visible Light 11h 46m
Length of Day
10h 56m
Last Quarter, 39% of the Moon is Illuminated
Oct 31
Last Quarter
Nov 6
New
Nov 13
First Quarter
Nov 21
Full
Nov 28
Last Quarter

Hourly Weather History & Observations

Time (WET) Temp. Dew Point Humidity Pressure Visibility Wind Dir Wind Speed Gust Speed Precip Events Conditions
12:00 AM 62.6 °F 59.0 °F 88% 30.09 in 6.2 mi SW 5.8 mph - N/A   Scattered Clouds
12:30 AM 62.6 °F 59.0 °F 88% 30.09 in 6.2 mi SW 5.8 mph - N/A   Scattered Clouds
1:00 AM 62.6 °F 59.0 °F 88% 30.09 in 5.0 mi SW 4.6 mph - N/A   Scattered Clouds
1:30 AM 62.6 °F 59.0 °F 88% 30.09 in 5.0 mi WSW 4.6 mph - N/A   Scattered Clouds
2:00 AM 62.6 °F 59.0 °F 88% 30.09 in 6.2 mi WSW 4.6 mph - N/A   Scattered Clouds
2:03 AM 62.6 °F 59.0 °F 88% 30.09 in 6.2 mi West 4.6 mph - N/A   Mostly Cloudy
2:30 AM 62.6 °F 59.0 °F 88% 30.09 in 6.2 mi West 4.6 mph - N/A   Mostly Cloudy
3:00 AM 62 °F 59 °F 88% 30.06 in 6 mi WSW 3.5 mph - -   Partly Cloudy
3:00 AM 62.6 °F 59.0 °F 88% 30.09 in 6.2 mi WSW 4.6 mph - N/A   Mostly Cloudy
3:30 AM 62.6 °F 59.0 °F 88% 30.09 in 6.2 mi WSW 3.5 mph - N/A   Mostly Cloudy
4:00 AM 62.6 °F 59.0 °F 88% 30.09 in 6.2 mi WSW 4.6 mph - N/A   Mostly Cloudy
4:30 AM 62.6 °F 59.0 °F 88% 30.09 in 6.2 mi SW 3.5 mph - N/A   Mostly Cloudy
5:00 AM 60.8 °F 59.0 °F 94% 30.09 in 6.2 mi SW 4.6 mph - N/A   Mostly Cloudy
5:30 AM 60.8 °F 59.0 °F 94% 30.06 in 6.2 mi SW 4.6 mph - N/A   Mostly Cloudy
6:00 AM 61 °F 59 °F 90% 30.06 in 6 mi West 3.5 mph - -   Partly Cloudy
6:00 AM 60.8 °F 59.0 °F 94% 30.09 in 6.2 mi West 3.5 mph - N/A   Mostly Cloudy
6:30 AM 60.8 °F 59.0 °F 94% 30.09 in 6.2 mi SW 3.5 mph - N/A   Mostly Cloudy
7:00 AM 60.8 °F 59.0 °F 94% 30.12 in 6.2 mi West 5.8 mph - N/A   Mostly Cloudy
7:30 AM 60.8 °F 59.0 °F 94% 30.12 in 6.2 mi West 4.6 mph - N/A   Mostly Cloudy
7:52 AM 60.8 °F 57.2 °F 88% 30.15 in 6.2 mi West 5.8 mph - N/A   Mostly Cloudy
8:00 AM 60.8 °F 57.2 °F 88% 30.15 in 6.2 mi West 5.8 mph - N/A   Mostly Cloudy
8:30 AM 62.6 °F 57.2 °F 82% 30.15 in 6.2 mi West 5.8 mph - N/A   Mostly Cloudy
8:48 AM 63 °F 56 °F 70% 30.13 in 6 mi SW 6.9 mph - -   Mostly Cloudy
9:00 AM 62.6 °F 55.4 °F 77% 30.15 in 6.2 mi SW 6.9 mph - N/A   Mostly Cloudy
9:30 AM 64.4 °F 55.4 °F 73% 30.15 in 6.2 mi SW 8.1 mph - N/A   Mostly Cloudy
10:00 AM 66.2 °F 55.4 °F 68% 30.15 in 5.0 mi SW 9.2 mph - N/A   Scattered Clouds
10:30 AM 68.0 °F 53.6 °F 60% 30.15 in 5.0 mi SW 10.4 mph - N/A   Scattered Clouds
11:00 AM 68.0 °F 53.6 °F 60% 30.15 in 6.2 mi SW 9.2 mph - N/A   Scattered Clouds
11:30 AM 69.8 °F 53.6 °F 56% 30.12 in 6.2 mi SSW 9.2 mph - N/A   Scattered Clouds
11:44 AM 71 °F 52 °F 41% 30.07 in 6 mi SSW 8.1 mph - -   Partly Cloudy
12:00 PM 71.6 °F 51.8 °F 50% 30.12 in 6.2 mi SSW 8.1 mph - N/A   Scattered Clouds
12:30 PM 73.4 °F 53.6 °F 50% 30.09 in 6.2 mi West 9.2 mph - N/A   Scattered Clouds
1:00 PM 73.4 °F 53.6 °F 50% 30.09 in 6.2 mi WSW 8.1 mph - N/A   Scattered Clouds
1:30 PM 75.2 °F 53.6 °F 47% 30.09 in 6.2 mi West 10.4 mph - N/A   Scattered Clouds
2:00 PM 75.2 °F 53.6 °F 47% 30.09 in 6.2 mi WNW 11.5 mph - N/A   Scattered Clouds
2:30 PM 75.2 °F 55.4 °F 50% 30.06 in 6.2 mi West 11.5 mph - N/A   Scattered Clouds
3:00 PM 74 °F 54 °F 40% 30.01 in 6 mi West 13.8 mph - -   Mostly Cloudy
3:00 PM 73.4 °F 55.4 °F 53% 30.06 in 6.2 mi West 13.8 mph - N/A   Mostly Cloudy
3:30 PM 73.4 °F 57.2 °F 57% 30.06 in 6.2 mi NW 13.8 mph - N/A   Mostly Cloudy
4:00 PM 71.6 °F 59.0 °F 64% 30.06 in 6.2 mi NW 15.0 mph - N/A   Mostly Cloudy
4:30 PM 68.0 °F 59.0 °F 73% 30.09 in 6.2 mi NW 12.7 mph - N/A   Mostly Cloudy
5:00 PM 68.0 °F 59.0 °F 73% 30.09 in 6.2 mi NNW 11.5 mph - N/A   Mostly Cloudy
5:30 PM 66.2 °F 59.0 °F 78% 30.09 in 6.2 mi NNW 11.5 mph - N/A   Mostly Cloudy
5:46 PM 65 °F 58 °F 70% 30.09 in 5 mi North 9.2 mph - -   Overcast
6:00 PM 64.4 °F 57.2 °F 77% 30.12 in 5.0 mi North 9.2 mph - N/A   Overcast
6:30 PM 62.6 °F 59.0 °F 88% 30.12 in 3.1 mi NNW 9.2 mph - N/A Rain Light Rain
7:00 PM 62.6 °F 59.0 °F 88% 30.12 in 3.1 mi North 5.8 mph - N/A Rain Light Rain
7:30 PM 62.6 °F 59.0 °F 88% 30.12 in 5.0 mi NE 5.8 mph - N/A   Overcast
8:00 PM 64.4 °F 53.6 °F 68% 30.12 in 5.0 mi North 8.1 mph - N/A   Overcast
8:30 PM 64.4 °F 53.6 °F 68% 30.15 in 5.0 mi NNE 5.8 mph - N/A   Overcast
9:00 PM 63 °F 53 °F 60% 30.13 in 5 mi NE 8.1 mph - -   Overcast
9:00 PM 62.6 °F 51.8 °F 68% 30.15 in 5.0 mi NE 8.1 mph - N/A   Overcast
9:30 PM 62.6 °F 51.8 °F 68% 30.15 in 5.0 mi NE 6.9 mph - N/A   Overcast
10:00 PM 62.6 °F 51.8 °F 68% 30.15 in 5.0 mi NNE 8.1 mph - N/A   Overcast
10:30 PM 62.6 °F 53.6 °F 72% 30.15 in 5.0 mi East 9.2 mph - N/A   Overcast
11:00 PM 60.8 °F 53.6 °F 77% 30.15 in 5.0 mi East 10.4 mph - N/A   Overcast
11:30 PM 60.8 °F 53.6 °F 77% 30.18 in 5.0 mi East 6.9 mph - N/A   Overcast
11:48 PM 61 °F 56 °F 77% 30.15 in 5 mi East 8.1 mph - -   Partly Cloudy